Woodward, OK

12:36 PM CDT on June 27, 2017 (GMT -0500)
West Woodward

Weather History for KWWR - March, 2013

Change the Weather History Date:

Sunday, March 3, 2013

  Actual Average (KGAG) Record (KGAG)
Temperature  
Mean Temperature 48 °F -  
Max Temperature 60 °F 54 °F 84 °F (1955)
Min Temperature 37 °F 30 °F -5 °F (1960)
Degree Days  
Heating Degree Days 16    
Moisture  
Dew Point 33 °F    
Average Humidity 61    
Maximum Humidity 87    
Minimum Humidity 36    
Precipitation  
Precipitation 0.00 in - - ()
Sea Level Pressure  
Sea Level Pressure 29.82 in    
Wind  
Wind Speed 10 mph (South)    
Max Wind Speed 16 mph    
Max Gust Speed -    
Visibility 10 miles    
Events      
Averages and records for this station are not official NWS values.
T = Trace of Precipitation, MM = Missing Value Source: NWS Daily Summary

Daily Weather History Graph

Daily Weather History Graph

Search for Another Location

Airport or City:

Trip Planner

Search our weather history database for the weather conditions in past years. The results will help you decide how hot, cold, wet, or windy it might be!

Date:

Astronomy

Mar. 03, 2013 Rise Set
Actual Time 7:05 AM CST 6:34 PM CST
Civil Twilight 6:39 AM CST 7:00 PM CST
Nautical Twilight 6:09 AM CST 7:30 PM CST
Astronomical Twilight 5:39 AM CST 8:00 PM CST
Moon 12:04 AM CST (3/3) 10:33 AM CST (3/3)
Length of Visible Light 12h 21m
Length of Day
11h 29m
Waning Gibbous, 63% of the Moon is Illuminated
Mar 3
Waning Gibbous
Mar 4
Last Quarter
Mar 11
New
Mar 19
First Quarter
Mar 27
Full

Hourly Weather History & Observations

Time (CST) Temp. Windchill Dew Point Humidity Pressure Visibility Wind Dir Wind Speed Gust Speed Precip Events Conditions
12:15 AM 39.2 °F 33.6 °F 32.0 °F 75% 30.12 in 10.0 mi SW 8.1 mph - N/A   Clear
12:35 AM 37.4 °F 30.3 °F 33.8 °F 87% 30.11 in 10.0 mi SW 10.4 mph - N/A   Clear
12:55 AM 41.0 °F 34.3 °F 33.8 °F 76% 30.11 in 10.0 mi SSW 11.5 mph - N/A   Clear
1:15 AM 41.0 °F 34.3 °F 33.8 °F 76% 30.11 in 10.0 mi SSW 11.5 mph - N/A   Clear
1:35 AM 39.2 °F 32.5 °F 32.0 °F 75% 30.10 in 10.0 mi SSW 10.4 mph - N/A   Clear
1:55 AM 39.2 °F 32.5 °F 32.0 °F 75% 30.10 in 10.0 mi SW 10.4 mph - N/A   Clear
2:15 AM 39.2 °F 32.5 °F 32.0 °F 75% 30.09 in 10.0 mi SW 10.4 mph - N/A   Clear
2:35 AM 39.2 °F 32.5 °F 32.0 °F 75% 30.09 in 10.0 mi SW 10.4 mph - N/A   Clear
2:55 AM 37.4 °F 29.8 °F 32.0 °F 81% 30.07 in 10.0 mi SW 11.5 mph - N/A   Clear
3:15 AM 39.2 °F 31.6 °F 32.0 °F 75% 30.05 in 10.0 mi SW 12.7 mph - N/A   Clear
3:35 AM 37.4 °F 29.8 °F 32.0 °F 81% 30.04 in 10.0 mi SSW 11.5 mph - N/A   Clear
3:55 AM 39.2 °F 31.2 °F 32.0 °F 75% 30.03 in 10.0 mi SSW 13.8 mph - N/A   Clear
4:15 AM 37.4 °F 29.3 °F 32.0 °F 81% 30.02 in 10.0 mi SSW 12.7 mph - N/A   Clear
4:35 AM 37.4 °F 29.3 °F 32.0 °F 81% 30.02 in 10.0 mi SSW 12.7 mph - N/A   Clear
4:55 AM 37.4 °F 28.9 °F 32.0 °F 81% 30.01 in 10.0 mi SSW 13.8 mph - N/A   Clear
5:15 AM 37.4 °F 28.9 °F 32.0 °F 81% 30.00 in 10.0 mi SSW 13.8 mph - N/A   Clear
5:35 AM 37.4 °F 29.8 °F 32.0 °F 81% 30.00 in 10.0 mi SW 11.5 mph - N/A   Clear
5:55 AM 37.4 °F 29.8 °F 32.0 °F 81% 29.99 in 10.0 mi SW 11.5 mph - N/A   Clear
6:15 AM 37.4 °F 30.3 °F 32.0 °F 81% 29.99 in 10.0 mi SW 10.4 mph - N/A   Clear
6:35 AM 37.4 °F 29.8 °F 32.0 °F 81% 29.98 in 10.0 mi SW 11.5 mph - N/A   Clear
6:55 AM 37.4 °F 29.8 °F 32.0 °F 81% 29.98 in 10.0 mi SW 11.5 mph - N/A   Clear
7:15 AM 37.4 °F 29.8 °F 32.0 °F 81% 29.97 in 10.0 mi SW 11.5 mph - N/A   Clear
7:35 AM 37.4 °F 30.3 °F 32.0 °F 81% 29.96 in 10.0 mi SSW 10.4 mph - N/A   Clear
7:55 AM 41.0 °F 33.9 °F 32.0 °F 70% 29.95 in 10.0 mi SSW 12.7 mph - N/A   Clear
8:15 AM 42.8 °F 36.2 °F 32.0 °F 66% 29.95 in 10.0 mi SSW 12.7 mph - N/A   Clear
8:35 AM 42.8 °F 35.8 °F 32.0 °F 66% 29.93 in 10.0 mi SSW 13.8 mph - N/A   Clear
8:55 AM 44.6 °F 37.8 °F 32.0 °F 61% 29.94 in 10.0 mi SSW 15.0 mph - N/A   Clear
9:15 AM 46.4 °F 40.4 °F 32.0 °F 57% 29.93 in 10.0 mi SSW 13.8 mph - N/A   Clear
9:35 AM 48.2 °F - 32.0 °F 54% 29.93 in 10.0 mi SSW 13.8 mph - N/A   Clear
9:55 AM 46.4 °F 40.4 °F 32.0 °F 57% 29.91 in 10.0 mi SSW 13.8 mph - N/A   Clear
10:15 AM 48.2 °F - 32.0 °F 54% 29.90 in 10.0 mi SSW 13.8 mph - N/A   Clear
10:35 AM 46.4 °F 39.8 °F 32.0 °F 57% 29.89 in 10.0 mi SSW 16.1 mph - N/A   Clear
10:55 AM 48.2 °F - 32.0 °F 54% 29.88 in 10.0 mi SSW 16.1 mph - N/A   Clear
11:15 AM 48.2 °F - 32.0 °F 54% 29.86 in 10.0 mi SSW 10.4 mph - N/A   Clear
11:35 AM 50.0 °F - 32.0 °F 50% 29.85 in 10.0 mi South 12.7 mph - N/A   Clear
11:55 AM 51.8 °F - 33.8 °F 50% 29.84 in 10.0 mi South 8.1 mph - N/A   Clear
12:15 PM 53.6 °F - 33.8 °F 47% 29.81 in 10.0 mi South 9.2 mph - N/A   Clear
12:35 PM 53.6 °F - 35.6 °F 51% 29.80 in 10.0 mi SSE 8.1 mph - N/A   Clear
12:55 PM 53.6 °F - 35.6 °F 51% 29.79 in 10.0 mi SE 9.2 mph - N/A   Clear
1:15 PM 55.4 °F - 37.4 °F 51% 29.77 in 10.0 mi SSE 6.9 mph - N/A   Clear
1:55 PM 57.2 °F - 35.6 °F 44% 29.74 in 10.0 mi South 10.4 mph - N/A   Clear
2:15 PM 59.0 °F - 35.6 °F 42% 29.72 in 10.0 mi South 11.5 mph - N/A   Clear
2:35 PM 59.0 °F - 35.6 °F 42% 29.72 in 10.0 mi South 10.4 mph - N/A   Clear
2:55 PM 55.4 °F - 35.6 °F 47% 29.71 in 10.0 mi SSE 10.4 mph - N/A   Clear
3:15 PM 57.2 °F - 33.8 °F 41% 29.70 in 10.0 mi South 12.7 mph - N/A   Clear
3:35 PM 59.0 °F - 33.8 °F 39% 29.69 in 10.0 mi South 11.5 mph - N/A   Clear
3:55 PM 60.8 °F - 33.8 °F 36% 29.68 in 10.0 mi South 10.4 mph - N/A   Clear
4:15 PM 59.0 °F - 35.6 °F 42% 29.67 in 10.0 mi South 10.4 mph - N/A   Clear
4:35 PM 60.8 °F - 35.6 °F 39% 29.66 in 10.0 mi South 6.9 mph - N/A   Clear
4:55 PM 59.0 °F - 35.6 °F 42% 29.65 in 10.0 mi South 4.6 mph - N/A   Clear
5:15 PM 59.0 °F - 37.4 °F 45% 29.65 in 10.0 mi SSE 6.9 mph - N/A   Clear
5:35 PM 55.4 °F - 35.6 °F 47% 29.65 in 10.0 mi SSE 6.9 mph - N/A   Clear
5:55 PM 55.4 °F - 35.6 °F 47% 29.65 in 10.0 mi SSE 8.1 mph - N/A   Clear
6:15 PM 53.6 °F - 35.6 °F 51% 29.64 in 10.0 mi SSE 11.5 mph - N/A   Clear
6:35 PM 53.6 °F - 33.8 °F 47% 29.63 in 10.0 mi SSE 11.5 mph - N/A   Clear
6:55 PM 53.6 °F - 33.8 °F 47% 29.62 in 10.0 mi SSE 13.8 mph - N/A   Clear
7:15 PM 51.8 °F - 33.8 °F 50% 29.62 in 10.0 mi SSE 12.7 mph - N/A   Clear
7:35 PM 51.8 °F - 33.8 °F 50% 29.62 in 10.0 mi SSE 12.7 mph - N/A   Clear
7:55 PM 53.6 °F - 33.8 °F 47% 29.62 in 10.0 mi South 10.4 mph - N/A   Clear
8:15 PM 51.8 °F - 33.8 °F 50% 29.61 in 10.0 mi South 12.7 mph - N/A   Clear
8:35 PM 51.8 °F - 33.8 °F 50% 29.61 in 10.0 mi South 9.2 mph - N/A   Clear
8:55 PM 51.8 °F - 33.8 °F 50% 29.60 in 10.0 mi Calm Calm - N/A   Clear
9:15 PM 50.0 °F - 33.8 °F 54% 29.60 in 10.0 mi SE 4.6 mph - N/A   Clear
9:35 PM 50.0 °F - 33.8 °F 54% 29.60 in 10.0 mi Calm Calm - N/A   Clear
9:55 PM 46.4 °F 45.2 °F 33.8 °F 62% 29.59 in 10.0 mi ESE 3.5 mph - N/A   Clear
10:15 PM 46.4 °F 44.3 °F 33.8 °F 62% 29.58 in 10.0 mi ESE 4.6 mph - N/A   Clear
10:35 PM 46.4 °F 42.4 °F 33.8 °F 62% 29.57 in 10.0 mi SE 8.1 mph - N/A   Clear
10:55 PM 46.4 °F 43.5 °F 33.8 °F 62% 29.56 in 10.0 mi SE 5.8 mph - N/A   Clear
11:15 PM 42.8 °F - 33.8 °F 70% 29.55 in 10.0 mi Calm Calm - N/A   Clear
11:35 PM 42.8 °F - 33.8 °F 70% 29.55 in 10.0 mi Calm Calm - N/A   Clear
11:55 PM 42.8 °F - 33.8 °F 70% 29.55 in 10.0 mi Calm Calm - N/A   Clear